SCP
0 -0 0 -0 0 0 0 0 1 0 0 0 0 0 0 0 0 0 0 0 0 0 0 0 0 0 0 0 -0 -0 -0 0 0 0 0 0 0 0
-0 -0 -0 0 0 0 0 0 0 0 0 0 0 0 0 0 0 0 0 0 0 0 0 0 0 0 0 0 -0 -0 0 0 0 0 0 0 0 0
-0 -0 0 0 0 0 0 0 0 0 0 0 0 0 0 0 0 0 0 0 0 0 0 0 0 0 -0 -0 0 0 0 0 0 0 0 0 0 0
-0 -0 0 0 0 0 -0 0 0 0 0 0 0 0 0 0 0 0 0 0 0 0 0 0 0 -0 0 0 0 -0 -0 0 0 0 0 0 0 0
0 0 0 0 -0 -0 -0 0 -0 -0 0 0 0 0 0 0 0 0 0 0 0 0 0 0 0 0 -0 -0 -0 -0 -0 0 0 0 0 0 0 0
0 0 0 0 0 -0 0 -0 0 0 0 0 0 0 0 0 0 0 0 0 0 0 0 -0 0 -0 -0 -0 -0 -0 -0 -0 0 0 0 0 0 0
0 -0 0 0 -0 0 -0 -0 -0 -0 0 0 0 0 0 0 0 0 0 0 0 0 0 0 -0 -0 -0 -0 -0 -0 -0 0 0 0 0 0 0 0
0 0 -0 -0 -0 -0 -0 -0 -0 0 0 0 0 0 0 0 0 0 0 0 0 0 0 -0 -0 -0 0 0 -0 0 0 0 0 0 0 0 0 0
0 0 0 0 0 -0 -0 -0 -0 -0 0 0 0 0 0 0 0 0 -0 0 0 0 -0 -0 0 0 0 0 0 0 0 0 0 0 0 0 0 0
0 0 0 0 0 0 -0 -0 -0 0 0 0 0 0 0 0 0 -0 -0 0 0 -0 -0 0 0 0 0 0 0 0 0 0 0 0 0 0 0 0
0 0 0 0 0 0 -0 -0 -0 0 0 0 0 0 0 0 0 0 -0 -0 -0 0 0 0 0 0 0 0 0 0 0 0 0 0 0 0 0 -0
0 0 0 0 0 0 0 -0 -0 -0 -0 -0 0 0 0 0 -0 0 -0 0 0 0 0 0 0 0 0 0 0 0 0 0 0 0 0 0 0 0
0 0 0 0 0 -0 0 0 0 0 0 0 -0 -0 -0 0 0 0 -0 -0 0 0 0 0 0 0 0 0 0 0 0 0 0 0 0 0 0 0
0 0 0 0 0 0 0 0 0 0 0 -0 -0 -0 -0 -0 0 0 0 0 0 0 0 0 0 0 0 0 0 0 0 0 0 0 0 0 0 0
0 -0 -0 -0 -0 0 -0 -0 0 0 -0 0 0 0 0 -0 -0 0 0 0 0 0 0 0 0 0 0 0 0 0 0 0 0 0 0 0 0 0
-0 -0 -0 -0 0 -0 -0 0 -0 -0 -0 0 0 -0 -0 -0 0 0 0 0 0 0 0 0 0 0 0 0 0 0 0 0 0 0 0 0 0 0
-0 -0 -0 -0 -0 -0 -0 0 0 0 0 0 -0 -0 -0 0 0 0 0 0 0 0 0 0 0 0 0 0 0 0 0 0 0 0 0 0 0 0
-0 0 0 0 0 0 0 0 0 0 0 -0 -0 0 0 0 0 0 0 0 0 0 0 0 0 0 0 0 0 0 0 0 0 0 0 0 0 0
0 0 0 0 0 0 0 0 0 -0 -0 0 0 0 0 0 0 0 0 0 0 0 0 0 0 0 0 0 0 0 0 0 0 0 0 0 0 0
0 0 -0 -0 -0 -0 0 0 -0 -0 -0 0 0 0 0 0 0 0 0 0 0 0 0 0 0 0 0 0 0 0 0 0 0 0 0 0 0 0
0 0 0 -0 -0 -0 -0 -0 -0 0 0 0 0 0 0 0 0 0 0 0 0 0 0 0 0 0 0 0 0 0 0 0 0 0 0 0 0 0
0 0 0 0 0 -0 -0 0 0 0 0 0 0 0 0 0 0 0 0 0 0 0 0 0 0 0 0 0 0 0 0 0 0 0 0 0 0 0
-0 0 0 0 0 0 0 0 0 0 0 0 0 0 0 0 0 0 0 0 0 0 0 0 0 0 0 0 0 0 0 0 0 0 0 0 0 0
Wind_Speed_500mb
14 14 13 10 16 19 25 34 30 17 18 13 14 21 30 51 77 90 91 79 71 65 60 43 38 36 36 30 23 21 19 16 13 9 8 10 13 16
16 19 19 26 20 17 27 36 16 18 16 26 26 46 50 94 89 85 82 76 66 57 48 42 38 40 31 25 23 21 17 14 11 10 12 13 18 21
15 19 23 30 22 21 39 29 25 23 34 35 52 77 89 90 87 86 76 67 59 49 44 43 37 31 30 25 21 18 17 12 12 13 17 21 26 30
19 24 28 27 29 22 29 26 24 30 28 39 79 82 79 84 84 80 68 56 50 49 40 40 35 31 26 24 21 16 12 14 16 21 25 27 30 30
13 20 21 29 33 24 27 26 24 24 39 72 88 87 84 82 75 67 59 53 51 49 41 35 32 28 24 20 16 14 14 18 21 23 22 21 24 25
16 18 20 23 21 22 21 25 26 36 59 71 83 83 77 73 69 62 50 47 43 44 36 33 29 25 19 15 15 14 15 15 14 15 19 20 21 24
19 21 23 24 23 22 19 23 28 43 58 69 80 77 77 70 67 57 51 49 53 44 34 29 24 20 18 17 14 11 9 11 13 13 15 17 19 21
23 23 22 22 21 22 19 21 30 42 60 70 84 81 75 71 66 53 49 49 41 33 32 29 23 23 22 19 15 9 7 8 10 10 13 15 17 20
27 24 25 23 19 19 21 27 28 27 43 63 80 79 73 69 59 48 36 43 38 40 36 29 24 21 22 19 14 7 6 6 6 8 11 14 19 26
30 27 28 21 19 25 26 31 30 41 44 51 68 73 69 63 46 37 44 35 31 36 29 23 23 21 22 18 11 7 5 3 5 10 12 17 24 28
27 32 37 41 41 35 40 39 39 42 42 46 51 64 58 44 40 42 37 32 33 27 25 20 24 20 19 17 13 8 4 3 5 8 15 19 25 31
38 32 39 43 44 36 44 49 50 50 48 52 51 52 47 33 30 28 32 27 25 20 27 22 28 24 13 14 15 12 9 4 8 13 17 23 28 30
41 38 52 41 34 37 37 45 45 51 52 53 51 46 42 38 39 27 28 16 20 14 21 22 28 25 10 14 18 15 12 9 9 18 22 23 27 29
33 40 36 33 38 38 41 39 40 46 38 38 37 36 35 31 33 36 36 35 36 26 18 32 19 22 19 18 23 19 11 9 6 14 19 28 33 34
29 28 33 36 34 33 35 36 39 27 28 32 33 31 30 33 33 31 31 28 25 21 22 29 18 24 24 23 23 20 13 10 12 18 21 18 17 12
33 33 34 35 33 36 36 37 27 30 30 29 30 34 32 31 31 30 29 28 26 21 20 23 27 28 24 23 19 14 11 10 16 18 21 13 14 16
36 37 31 27 30 31 33 31 28 32 31 33 34 33 34 35 33 33 30 28 21 20 20 23 28 29 24 21 16 16 12 11 12 14 16 13 15 21
41 32 32 32 32 32 32 31 29 33 31 31 31 32 31 30 29 30 27 24 24 23 22 23 29 28 26 24 22 12 9 6 10 15 16 18 17 17
34 34 34 36 36 36 36 35 35 35 35 34 33 31 30 29 37 29 28 26 25 24 23 25 26 23 20 14 19 21 12 11 13 11 21 26 23 19
36 36 38 38 40 39 38 37 35 36 37 35 34 33 34 33 33 31 29 29 28 28 27 28 27 30 25 18 11 24 17 17 19 19 24 26 25 34
43 40 38 40 41 41 40 39 40 40 41 42 41 40 39 37 36 35 36 41 43 39 43 44 44 37 33 17 21 16 23 22 20 24 26 24 25 20
45 46 45 43 43 43 43 42 42 46 48 47 45 44 44 44 42 41 42 42 51 47 53 41 45 48 35 23 32 26 26 25 29 24 23 24 27 23
47 47 48 49 48 47 46 47 48 49 50 51 49 48 49 48 47 45 46 51 54 57 55 54 55 53 37 38 38 29 23 21 22 23 31 32 27 32
Wind_Direction_500mb
174 171 193 219 162 165 171 175 154 152 166 174 219 233 209 183 177 162 156 154 152 158 165 158 167 162 170 165 158 166 174 179 197 222 255 280 296 299
160 163 165 162 140 145 156 161 171 171 147 217 213 190 202 167 157 152 151 154 159 160 157 162 168 169 156 160 171 180 185 196 219 250 274 292 292 296
161 149 144 148 153 135 150 154 168 177 185 176 160 142 141 139 143 144 153 158 158 155 155 165 157 152 167 175 180 191 203 224 252 268 280 283 291 295
155 149 154 159 136 136 142 156 181 191 193 173 156 147 145 145 147 152 157 163 158 157 156 148 152 168 172 182 194 209 231 250 265 271 280 290 294 297
161 165 150 156 158 144 149 155 154 145 158 150 146 154 148 152 155 158 157 157 152 149 149 145 166 173 180 192 207 230 249 259 270 279 283 294 300 304
170 147 154 171 163 158 158 157 155 146 147 143 150 153 153 157 151 146 142 144 145 145 146 167 170 178 184 201 220 235 249 260 270 283 297 305 319 323
174 170 166 155 160 165 158 159 156 154 161 159 157 159 155 155 150 156 146 152 141 150 165 163 170 178 191 199 201 213 242 271 286 306 319 328 328 329
163 168 158 149 146 146 152 155 156 157 169 169 165 162 161 159 160 151 152 146 139 154 154 143 147 153 182 194 196 223 255 293 310 330 336 338 341 348
167 157 145 141 154 161 160 153 162 176 171 179 167 165 161 159 149 150 145 154 158 161 164 147 162 179 187 195 207 226 281 301 328 345 353 0 359 357
149 148 145 138 145 152 144 142 167 152 170 170 165 164 158 155 163 157 149 165 172 155 163 152 164 179 199 205 213 225 250 284 5 7 2 1 358 347
138 142 138 121 120 124 139 138 137 141 144 158 162 160 162 158 164 170 163 156 160 172 177 175 173 175 199 214 213 228 257 338 358 349 0 354 343 338
122 122 153 136 130 118 127 128 132 131 133 147 149 152 171 168 176 166 166 170 174 180 204 177 184 177 179 216 221 227 227 282 332 348 341 338 339 343
118 118 128 129 133 132 133 137 135 137 139 145 155 163 165 169 168 166 177 200 195 208 218 184 191 196 205 197 199 210 208 292 335 332 325 328 335 340
133 133 128 129 133 135 139 147 148 144 138 141 146 152 159 165 181 189 192 192 191 203 202 193 196 203 202 200 196 206 222 268 281 312 322 327 334 339
141 144 141 142 144 144 145 147 149 142 147 150 155 161 166 184 188 193 200 206 213 224 216 214 196 197 194 200 196 191 192 236 276 310 322 324 321 325
169 159 154 154 150 153 154 154 154 158 160 167 168 179 180 184 190 198 203 204 212 219 223 227 216 190 185 186 187 188 212 210 278 306 323 316 310 315
168 169 168 167 171 175 180 183 182 181 182 186 189 187 191 195 197 197 196 199 209 215 217 208 199 189 184 185 192 201 227 262 287 298 329 312 297 305
182 184 186 186 188 191 192 194 195 195 190 189 190 190 190 191 195 199 201 202 204 197 191 196 197 201 207 208 222 226 250 250 280 299 320 312 306 305
184 193 196 197 198 199 201 202 203 203 198 197 197 198 198 198 208 203 205 208 207 201 199 195 194 199 203 209 241 245 236 267 289 291 303 318 315 310
200 205 205 205 204 206 207 208 207 208 205 203 205 206 207 207 211 211 212 212 207 204 203 201 201 205 190 196 203 256 254 277 287 300 314 318 327 330
213 211 213 213 213 212 213 213 213 212 212 213 212 213 218 217 220 216 216 213 214 206 215 223 219 216 210 220 247 243 267 271 297 307 312 326 332 330
222 222 220 219 219 219 219 218 219 217 221 222 220 222 225 226 221 219 217 218 221 220 225 218 209 208 212 238 239 239 258 291 300 304 311 327 335 331
224 227 227 227 226 223 223 223 223 224 225 227 226 226 227 225 223 221 217 227 226 227 218 214 210 212 218 226 234 241 254 277 290 294 315 326 328 327
Wind_Speed_850mb
14 14 13 10 16 19 25 34 30 17 18 13 14 21 30 51 77 90 91 79 71 65 60 43 38 36 36 30 23 21 19 16 13 9 8 10 13 16
16 19 19 26 20 17 27 36 16 18 16 26 26 46 50 94 89 85 82 76 66 57 48 42 38 40 31 25 23 21 17 14 11 10 12 13 18 21
15 19 23 30 22 21 39 29 25 23 34 35 52 77 89 90 87 86 76 67 59 49 44 43 37 31 30 25 21 18 17 12 12 13 17 21 26 30
19 24 28 27 29 22 29 26 24 30 28 39 79 82 79 84 84 80 68 56 50 49 40 40 35 31 26 24 21 16 12 14 16 21 25 27 30 30
13 20 21 29 33 24 27 26 24 24 39 72 88 87 84 82 75 67 59 53 51 49 41 35 32 28 24 20 16 14 14 18 21 23 22 21 24 25
16 18 20 23 21 22 21 25 26 36 59 71 83 83 77 73 69 62 50 47 43 44 36 33 29 25 19 15 15 14 15 15 14 15 19 20 21 24
19 21 23 24 23 22 19 23 28 43 58 69 80 77 77 70 67 57 51 49 53 44 34 29 24 20 18 17 14 11 9 11 13 13 15 17 19 21
23 23 22 22 21 22 19 21 30 42 60 70 84 81 75 71 66 53 49 49 41 33 32 29 23 23 22 19 15 9 7 8 10 10 13 15 17 20
27 24 25 23 19 19 21 27 28 27 43 63 80 79 73 69 59 48 36 43 38 40 36 29 24 21 22 19 14 7 6 6 6 8 11 14 19 26
30 27 28 21 19 25 26 31 30 41 44 51 68 73 69 63 46 37 44 35 31 36 29 23 23 21 22 18 11 7 5 3 5 10 12 17 24 28
27 32 37 41 41 35 40 39 39 42 42 46 51 64 58 44 40 42 37 32 33 27 25 20 24 20 19 17 13 8 4 3 5 8 15 19 25 31
38 32 39 43 44 36 44 49 50 50 48 52 51 52 47 33 30 28 32 27 25 20 27 22 28 24 13 14 15 12 9 4 8 13 17 23 28 30
41 38 52 41 34 37 37 45 45 51 52 53 51 46 42 38 39 27 28 16 20 14 21 22 28 25 10 14 18 15 12 9 9 18 22 23 27 29
33 40 36 33 38 38 41 39 40 46 38 38 37 36 35 31 33 36 36 35 36 26 18 32 19 22 19 18 23 19 11 9 6 14 19 28 33 34
29 28 33 36 34 33 35 36 39 27 28 32 33 31 30 33 33 31 31 28 25 21 22 29 18 24 24 23 23 20 13 10 12 18 21 18 17 12
33 33 34 35 33 36 36 37 27 30 30 29 30 34 32 31 31 30 29 28 26 21 20 23 27 28 24 23 19 14 11 10 16 18 21 13 14 16
36 37 31 27 30 31 33 31 28 32 31 33 34 33 34 35 33 33 30 28 21 20 20 23 28 29 24 21 16 16 12 11 12 14 16 13 15 21
41 32 32 32 32 32 32 31 29 33 31 31 31 32 31 30 29 30 27 24 24 23 22 23 29 28 26 24 22 12 9 6 10 15 16 18 17 17
34 34 34 36 36 36 36 35 35 35 35 34 33 31 30 29 37 29 28 26 25 24 23 25 26 23 20 14 19 21 12 11 13 11 21 26 23 19
36 36 38 38 40 39 38 37 35 36 37 35 34 33 34 33 33 31 29 29 28 28 27 28 27 30 25 18 11 24 17 17 19 19 24 26 25 34
43 40 38 40 41 41 40 39 40 40 41 42 41 40 39 37 36 35 36 41 43 39 43 44 44 37 33 17 21 16 23 22 20 24 26 24 25 20
45 46 45 43 43 43 43 42 42 46 48 47 45 44 44 44 42 41 42 42 51 47 53 41 45 48 35 23 32 26 26 25 29 24 23 24 27 23
47 47 48 49 48 47 46 47 48 49 50 51 49 48 49 48 47 45 46 51 54 57 55 54 55 53 37 38 38 29 23 21 22 23 31 32 27 32
Wind_Direction_850mb
174 171 193 219 162 165 171 175 154 152 166 174 219 233 209 183 177 162 156 154 152 158 165 158 167 162 170 165 158 166 174 179 197 222 255 280 296 299
160 163 165 162 140 145 156 161 171 171 147 217 213 190 202 167 157 152 151 154 159 160 157 162 168 169 156 160 171 180 185 196 219 250 274 292 292 296
161 149 144 148 153 135 150 154 168 177 185 176 160 142 141 139 143 144 153 158 158 155 155 165 157 152 167 175 180 191 203 224 252 268 280 283 291 295
155 149 154 159 136 136 142 156 181 191 193 173 156 147 145 145 147 152 157 163 158 157 156 148 152 168 172 182 194 209 231 250 265 271 280 290 294 297
161 165 150 156 158 144 149 155 154 145 158 150 146 154 148 152 155 158 157 157 152 149 149 145 166 173 180 192 207 230 249 259 270 279 283 294 300 304
170 147 154 171 163 158 158 157 155 146 147 143 150 153 153 157 151 146 142 144 145 145 146 167 170 178 184 201 220 235 249 260 270 283 297 305 319 323
174 170 166 155 160 165 158 159 156 154 161 159 157 159 155 155 150 156 146 152 141 150 165 163 170 178 191 199 201 213 242 271 286 306 319 328 328 329
163 168 158 149 146 146 152 155 156 157 169 169 165 162 161 159 160 151 152 146 139 154 154 143 147 153 182 194 196 223 255 293 310 330 336 338 341 348
167 157 145 141 154 161 160 153 162 176 171 179 167 165 161 159 149 150 145 154 158 161 164 147 162 179 187 195 207 226 281 301 328 345 353 0 359 357
149 148 145 138 145 152 144 142 167 152 170 170 165 164 158 155 163 157 149 165 172 155 163 152 164 179 199 205 213 225 250 284 5 7 2 1 358 347
138 142 138 121 120 124 139 138 137 141 144 158 162 160 162 158 164 170 163 156 160 172 177 175 173 175 199 214 213 228 257 338 358 349 0 354 343 338
122 122 153 136 130 118 127 128 132 131 133 147 149 152 171 168 176 166 166 170 174 180 204 177 184 177 179 216 221 227 227 282 332 348 341 338 339 343
118 118 128 129 133 132 133 137 135 137 139 145 155 163 165 169 168 166 177 200 195 208 218 184 191 196 205 197 199 210 208 292 335 332 325 328 335 340
133 133 128 129 133 135 139 147 148 144 138 141 146 152 159 165 181 189 192 192 191 203 202 193 196 203 202 200 196 206 222 268 281 312 322 327 334 339
141 144 141 142 144 144 145 147 149 142 147 150 155 161 166 184 188 193 200 206 213 224 216 214 196 197 194 200 196 191 192 236 276 310 322 324 321 325
169 159 154 154 150 153 154 154 154 158 160 167 168 179 180 184 190 198 203 204 212 219 223 227 216 190 185 186 187 188 212 210 278 306 323 316 310 315
168 169 168 167 171 175 180 183 182 181 182 186 189 187 191 195 197 197 196 199 209 215 217 208 199 189 184 185 192 201 227 262 287 298 329 312 297 305
182 184 186 186 188 191 192 194 195 195 190 189 190 190 190 191 195 199 201 202 204 197 191 196 197 201 207 208 222 226 250 250 280 299 320 312 306 305
184 193 196 197 198 199 201 202 203 203 198 197 197 198 198 198 208 203 205 208 207 201 199 195 194 199 203 209 241 245 236 267 289 291 303 318 315 310
200 205 205 205 204 206 207 208 207 208 205 203 205 206 207 207 211 211 212 212 207 204 203 201 201 205 190 196 203 256 254 277 287 300 314 318 327 330
213 211 213 213 213 212 213 213 213 212 212 213 212 213 218 217 220 216 216 213 214 206 215 223 219 216 210 220 247 243 267 271 297 307 312 326 332 330
222 222 220 219 219 219 219 218 219 217 221 222 220 222 225 226 221 219 217 218 221 220 225 218 209 208 212 238 239 239 258 291 300 304 311 327 335 331
224 227 227 227 226 223 223 223 223 224 225 227 226 226 227 225 223 221 217 227 226 227 218 214 210 212 218 226 234 241 254 277 290 294 315 326 328 327